When you browse on this site, cookies collect data to enhance your experience and personalize the content and advertising you see.
Visit our Privacy Policy to learn more. By continuing to use the site, you agree to this use of cookies and data.

Meteo orario Graz

Oggi, 13 Agosto, Giovedi

Tempo Temperatura Precipitazioni Vento Pressione Umidità
00:00 +18°C° 0 mm 0 m/s 726 mm Hg 83%
01:00 +20°C° 0 mm 1 m/s 725 mm Hg 84%
02:00 +20°C° 0 mm 1 m/s 725 mm Hg 85%
03:00 +20°C° 0 mm 1 m/s 725 mm Hg 86%
04:00 +19°C° 0 mm 1 m/s 725 mm Hg 87%
05:00 +21°C° 0 mm 1 m/s 725 mm Hg 85%
06:00 +20°C° 0 mm 0 m/s 725 mm Hg 83%
07:00 +21°C° 0 mm 0 m/s 725 mm Hg 80%
08:00 +25°C° 0 mm 1 m/s 725 mm Hg 74%
09:00 +27°C° 0 mm 1 m/s 725 mm Hg 68%
10:00 +29°C° 0 mm 1 m/s 725 mm Hg 61%
11:00 +29°C° 0.1 mm 1 m/s 725 mm Hg 60%
12:00 +30°C° 0.1 mm 1 m/s 724 mm Hg 58%
13:00 +30°C° 0 mm 1 m/s 724 mm Hg 57%
14:00 +29°C° 1.9 mm 1 m/s 724 mm Hg 65%
15:00 +28°C° 1.9 mm 1 m/s 723 mm Hg 73%
16:00 +27°C° 1.9 mm 1 m/s 723 mm Hg 81%
17:00 +26°C° 1.7 mm 1 m/s 723 mm Hg 84%
18:00 +24°C° 1.7 mm 1 m/s 723 mm Hg 88%
19:00 +23°C° 1.7 mm 1 m/s 723 mm Hg 91%
20:00 +22°C° 0.3 mm 1 m/s 723 mm Hg 91%
21:00 +22°C° 0.3 mm 1 m/s 723 mm Hg 91%
22:00 +21°C° 0.3 mm 1 m/s 723 mm Hg 91%
23:00 +21°C° 0 mm 1 m/s 723 mm Hg 91%

Domani, 14 Agosto, Venerdi

Tempo Temperatura Precipitazioni Vento Pressione Umidità
00:00 +20°C° 0 mm 1 m/s 723 mm Hg 91%
01:00 +20°C° 0 mm 1 m/s 724 mm Hg 91%
02:00 +20°C° 0 mm 1 m/s 723 mm Hg 91%
03:00 +19°C° 0 mm 1 m/s 723 mm Hg 92%
04:00 +19°C° 0 mm 1 m/s 723 mm Hg 92%
05:00 +20°C° 0.3 mm 1 m/s 723 mm Hg 91%
06:00 +19°C° 0.3 mm 0 m/s 723 mm Hg 91%
07:00 +19°C° 0.3 mm 0 m/s 723 mm Hg 90%
08:00 +21°C° 0.2 mm 0 m/s 724 mm Hg 82%
09:00 +25°C° 0.2 mm 1 m/s 724 mm Hg 74%
10:00 +27°C° 0.2 mm 1 m/s 724 mm Hg 66%
11:00 +27°C° 0.9 mm 1 m/s 724 mm Hg 67%
12:00 +27°C° 0.9 mm 1 m/s 723 mm Hg 69%
13:00 +27°C° 0.9 mm 2 m/s 723 mm Hg 71%
14:00 +26°C° 1.6 mm 1 m/s 723 mm Hg 75%
15:00 +26°C° 1.6 mm 1 m/s 722 mm Hg 80%
16:00 +23°C° 1.6 mm 0 m/s 722 mm Hg 85%
17:00 +24°C° 0.9 mm 1 m/s 722 mm Hg 87%
18:00 +23°C° 0.9 mm 1 m/s 722 mm Hg 90%
19:00 +22°C° 0.9 mm 1 m/s 722 mm Hg 92%
20:00 +21°C° 0.1 mm 1 m/s 722 mm Hg 92%
21:00 +21°C° 0.1 mm 1 m/s 722 mm Hg 92%
22:00 +21°C° 0.1 mm 1 m/s 723 mm Hg 91%
23:00 +21°C° 0.3 mm 1 m/s 723 mm Hg 91%

Dopodomani, 15 Agosto, Sabato

Tempo Temperatura Precipitazioni Vento Pressione Umidità
00:00 +20°C° 0.3 mm 1 m/s 723 mm Hg 91%
01:00 +20°C° 0.3 mm 1 m/s 723 mm Hg 91%
02:00 +20°C° 0.2 mm 1 m/s 722 mm Hg 90%
03:00 +20°C° 0.2 mm 1 m/s 722 mm Hg 90%
04:00 +20°C° 0.2 mm 1 m/s 722 mm Hg 90%
05:00 +20°C° 0.1 mm 1 m/s 722 mm Hg 89%
06:00 +21°C° 0.1 mm 1 m/s 723 mm Hg 88%
07:00 +21°C° 0.1 mm 1 m/s 723 mm Hg 88%
08:00 +22°C° 0.3 mm 1 m/s 723 mm Hg 85%
09:00 +21°C° 0.3 mm 0 m/s 723 mm Hg 83%
10:00 +22°C° 0.3 mm 0 m/s 723 mm Hg 80%
11:00 +23°C° 0.6 mm 0 m/s 723 mm Hg 75%
12:00 +26°C° 0.6 mm 1 m/s 723 mm Hg 70%
13:00 +27°C° 0.6 mm 1 m/s 723 mm Hg 65%
14:00 +27°C° 0.6 mm 1 m/s 723 mm Hg 65%
15:00 +27°C° 0.6 mm 1 m/s 722 mm Hg 66%
16:00 +25°C° 0.6 mm 0 m/s 722 mm Hg 66%
17:00 +26°C° 0.3 mm 1 m/s 722 mm Hg 72%
18:00 +24°C° 0.3 mm 1 m/s 722 mm Hg 77%
19:00 +23°C° 0.3 mm 1 m/s 722 mm Hg 83%
20:00 +22°C° 0 mm 1 m/s 722 mm Hg 84%
21:00 +21°C° 0 mm 1 m/s 722 mm Hg 86%
22:00 +20°C° 0 mm 1 m/s 722 mm Hg 87%
23:00 +20°C° 0 mm 1 m/s 722 mm Hg 88%

16 Agosto, Domenica

Tempo Temperatura Precipitazioni Vento Pressione Umidità
00:00 +19°C° 0 mm 1 m/s 722 mm Hg 88%
01:00 +19°C° 0 mm 1 m/s 722 mm Hg 88%
02:00 +19°C° 0 mm 1 m/s 722 mm Hg 89%
03:00 +18°C° 0 mm 1 m/s 722 mm Hg 89%
04:00 +18°C° 0 mm 1 m/s 722 mm Hg 89%
05:00 +19°C° 0 mm 1 m/s 722 mm Hg 87%
06:00 +20°C° 0 mm 1 m/s 722 mm Hg 85%
07:00 +19°C° 0 mm 0 m/s 723 mm Hg 82%
08:00 +23°C° 0 mm 1 m/s 723 mm Hg 74%
09:00 +26°C° 0 mm 1 m/s 723 mm Hg 66%
10:00 +28°C° 0 mm 1 m/s 723 mm Hg 57%
11:00 +28°C° 0.2 mm 1 m/s 723 mm Hg 57%
12:00 +28°C° 0.2 mm 2 m/s 723 mm Hg 58%
13:00 +29°C° 0.2 mm 2 m/s 723 mm Hg 58%
14:00 +28°C° 0.7 mm 2 m/s 723 mm Hg 63%
15:00 +28°C° 0.7 mm 2 m/s 722 mm Hg 68%
16:00 +27°C° 0.7 mm 2 m/s 722 mm Hg 74%
17:00 +26°C° 0.5 mm 1 m/s 722 mm Hg 79%
18:00 +24°C° 0.5 mm 1 m/s 722 mm Hg 84%
19:00 +21°C° 0.5 mm 0 m/s 722 mm Hg 89%
20:00 +20°C° 0 mm 0 m/s 722 mm Hg 90%
21:00 +20°C° 0 mm 0 m/s 722 mm Hg 91%
22:00 +19°C° 0 mm 0 m/s 722 mm Hg 92%
23:00 +19°C° 0.1 mm 0 m/s 722 mm Hg 92%

17 Agosto, Lunedi

Tempo Temperatura Precipitazioni Vento Pressione Umidità
00:00 +19°C° 0.1 mm 0 m/s 722 mm Hg 92%
01:00 +20°C° 0.1 mm 1 m/s 722 mm Hg 92%
02:00 +20°C° 0 mm 1 m/s 722 mm Hg 93%
03:00 +20°C° 0 mm 1 m/s 722 mm Hg 93%
04:00 +20°C° 0 mm 1 m/s 721 mm Hg 93%
05:00 +20°C° 0 mm 1 m/s 722 mm Hg 92%
06:00 +21°C° 0 mm 1 m/s 722 mm Hg 91%
07:00 +20°C° 0 mm 0 m/s 722 mm Hg 89%
08:00 +24°C° 0 mm 1 m/s 722 mm Hg 80%
09:00 +26°C° 0 mm 1 m/s 722 mm Hg 70%
10:00 +29°C° 0 mm 1 m/s 722 mm Hg 60%
11:00 +29°C° 0.2 mm 1 m/s 722 mm Hg 57%
12:00 +30°C° 0.2 mm 1 m/s 722 mm Hg 53%
13:00 +31°C° 0.2 mm 1 m/s 722 mm Hg 50%
14:00 +30°C° 0.5 mm 1 m/s 721 mm Hg 54%
15:00 +30°C° 0.5 mm 1 m/s 721 mm Hg 58%
16:00 +29°C° 0.5 mm 1 m/s 720 mm Hg 63%
17:00 +27°C° 0.4 mm 1 m/s 720 mm Hg 68%
18:00 +25°C° 0.4 mm 1 m/s 720 mm Hg 74%
19:00 +24°C° 0.4 mm 1 m/s 720 mm Hg 80%
20:00 +23°C° 0.5 mm 1 m/s 720 mm Hg 82%
21:00 +22°C° 0.5 mm 1 m/s 720 mm Hg 84%
22:00 +21°C° 0.5 mm 1 m/s 720 mm Hg 86%
23:00 +20°C° 0.2 mm 1 m/s 720 mm Hg 86%

18 Agosto, Martedi

Tempo Temperatura Precipitazioni Vento Pressione Umidità
00:00 +20°C° 0.2 mm 1 m/s 720 mm Hg 87%
01:00 +19°C° 0.2 mm 1 m/s 720 mm Hg 88%
02:00 +19°C° 0.2 mm 1 m/s 720 mm Hg 88%
03:00 +19°C° 0.2 mm 1 m/s 720 mm Hg 89%
04:00 +19°C° 0.2 mm 1 m/s 720 mm Hg 89%
05:00 +19°C° 0.8 mm 1 m/s 720 mm Hg 90%
06:00 +19°C° 0.8 mm 2 m/s 720 mm Hg 90%
07:00 +19°C° 0.8 mm 2 m/s 720 mm Hg 91%
08:00 +20°C° 0.7 mm 2 m/s 721 mm Hg 87%
09:00 +20°C° 0.7 mm 2 m/s 721 mm Hg 83%
10:00 +21°C° 0.7 mm 3 m/s 721 mm Hg 79%
11:00 +20°C° 0.1 mm 2 m/s 721 mm Hg 79%
12:00 +20°C° 0.1 mm 2 m/s 721 mm Hg 78%
13:00 +19°C° 0.1 mm 2 m/s 721 mm Hg 78%
14:00 +19°C° 0.3 mm 2 m/s 721 mm Hg 79%
15:00 +20°C° 0.3 mm 1 m/s 721 mm Hg 81%
16:00 +20°C° 0.3 mm 1 m/s 721 mm Hg 82%
17:00 +19°C° 0.1 mm 1 m/s 721 mm Hg 83%
18:00 +19°C° 0.1 mm 1 m/s 721 mm Hg 85%
19:00 +18°C° 0.1 mm 1 m/s 721 mm Hg 87%
20:00 +18°C° 0 mm 1 m/s 721 mm Hg 86%
21:00 +16°C° 0 mm 1 m/s 722 mm Hg 86%
22:00 +16°C° 0 mm 2 m/s 722 mm Hg 86%
23:00 +16°C° 0 mm 2 m/s 722 mm Hg 87%
Mostrare altro